Flag for U.S.A. Weather past 2 weeks in Tulsa, Oklahoma, U.S.A.

Now
79 °F

Clear.


Feels Like: 82 °F
Forecast: 71 / 94 °F
Wind: 8 mph from South

Location: Tulsa International Airport

Current Time: Aug 31, 2014 at 1:22:15 AM

Latest Report: Aug 31, 2014 at 12:53 AM


Visibility: 10 mi

Pressure: 29.87 "Hg

Humidity: 74%

Dew point: 70 °F

Location of TulsaLocation

Historic Weather in Tulsa — Graph

°F

Tulsa temperature yesterday

Maximum temperature yesterday: 98 °F (at 3:53 PM)
Minimum temperature yesterday: 74 °F (at 6:53 AM)
Average temperature yesterday: 83 °F

Past Weeks' High & Low Weather Summary

 TemperatureHumidityPressure
High101 °F (Aug 22, 2:53 PM)91% (Aug 30, 3:53 AM)30.07 "Hg (Aug 30, 3:53 AM)
Low70 °F (Aug 19, 2:53 AM)26% (Aug 23, 2:53 PM)29.75 "Hg (Aug 19, 6:53 PM)
Average86 °F58%29.88 "Hg
* Reported Aug 15 11:53 PM — Aug 30 11:53 PM, Tulsa, Weather by CustomWeather, © 2014

Note: Actual official high and low records may vary slightly from our data, if they occured in-between our weather recording intervals... More about our weather records

Advertising

Tulsa weather history for previous 24 hours

 ConditionsComfort  
Time TempWeatherWind HumidityBarometerVisibility
11:53 PM
Aug 30
80 °FClear.8 mph71%29.87 "Hg10 mi
10:53 PM80 °FClear.8 mph69%29.87 "Hg10 mi
9:53 PM80 °FClear.7 mph71%29.87 "Hg10 mi
8:53 PM82 °FPassing clouds.7 mph60%29.85 "Hg10 mi
7:53 PM85 °FPassing clouds.12 mph53%29.83 "Hg10 mi
6:53 PM89 °FPassing clouds.14 mph48%29.82 "Hg10 mi
5:53 PM92 °FPassing clouds.13 mph44%29.82 "Hg10 mi
4:53 PM91 °FPassing clouds.15 mph47%29.82 "Hg10 mi
3:53 PM98 °FScattered clouds.6 mph32%29.82 "Hg10 mi
2:53 PM95 °FScattered clouds.6 mph35%29.84 "Hg10 mi
1:53 PM93 °FScattered clouds.3 mph38%29.87 "Hg10 mi
12:53 PM91 °FPartly sunny.3 mph44%29.88 "Hg10 mi
11:53 AM89 °FScattered clouds.No wind52%29.90 "Hg10 mi
10:53 AM85 °FScattered clouds.9 mph59%29.91 "Hg10 mi
9:53 AM82 °FPassing clouds.5 mph67%29.91 "Hg10 mi
8:53 AM79 °FScattered clouds.3 mph74%29.90 "Hg10 mi
7:53 AM76 °FScattered clouds.7 mph88%29.90 "Hg10 mi
6:53 AM74 °FPassing clouds.6 mph91%29.89 "Hg10 mi
5:53 AM75 °FPassing clouds.7 mph90%29.89 "Hg10 mi
4:53 AM76 °FPartly cloudy.6 mph91%29.89 "Hg10 mi
3:53 AM76 °FPassing clouds.3 mph91%29.88 "Hg10 mi
2:53 AM77 °FPassing clouds.9 mph85%29.88 "Hg10 mi
1:53 AM77 °FPassing clouds.8 mph85%29.88 "Hg10 mi
Weather by CustomWeather, © 2014

See weather overviewHow to use our weather pages